Date,TemperatureHighF,TemperatureAvgF,TemperatureLowF,DewpointHighF,DewpointAvgF,DewpointLowF,HumidityHigh,HumidityAvg,HumidityLow,PressureMaxIn,PressureMinIn,WindSpeedMaxMPH,WindSpeedAvgMPH,GustSpeedMaxMPH,PrecipitationSumIn
2013-1-1,39,26,18,32,22,13,97,82,63,29.65,29.49,4,2,14,0.00
2013-1-2,23,14,10,13,7,5,88,75,51,29.73,29.52,7,4,17,0.00
2013-1-3,31,15,10,14,9,4,89,76,50,29.93,29.72,4,1,11,0.00
2013-1-4,43,22,5,29,16,2,95,80,39,29.96,29.70,2,0,8,0.01
2013-1-5,36,25,11,32,21,5,97,85,70,30.27,29.69,6,1,17,0.00
2013-1-6,33,18,1,30,15,-2,100,87,62,30.33,29.91,0,0,3,0.00
2013-1-7,29,16,-2,26,10,-5,97,80,50,30.47,29.93,3,1,11,0.00
2013-1-8,40,20,-6,37,16,-10,92,85,80,30.48,30.22,2,0,10,0.07
2013-1-9,59,33,17,38,27,16,100,84,35,30.49,29.97,2,0,6,0.00
2013-1-10,40,37,34,39,33,24,100,85,67,30.24,29.71,6,3,22,0.01
2013-1-11,38,29,24,28,21,18,86,73,50,30.41,30.24,4,2,18,0.00
2013-1-12,40,29,23,26,23,19,92,79,57,30.32,30.15,2,1,10,0.00
2013-1-13,43,35,25,40,33,22,100,91,80,30.23,30.13,2,0,6,0.00
2013-1-14,46,42,35,46,42,35,99,99,99,30.16,29.95,2,0,8,0.00
2013-1-15,50,34,23,40,24,14,100,74,30,30.32,30.09,2,0,7,0.00
2013-1-16,31,25,18,26,22,16,100,89,67,30.35,29.92,0,0,4,0.00
2013-1-17,48,33,27,42,30,20,100,90,63,30.07,29.78,3,1,10,0.05
2013-1-18,27,10,-6,19,4,-10,91,77,62,30.44,30.06,4,1,11,0.00
2013-1-19,39,20,-6,38,18,-10,100,91,81,30.46,30.07,3,0,13,0.06
2013-1-20,53,40,32,48,38,32,100,95,78,30.13,29.59,4,1,14,0.01
2013-1-21,40,26,16,34,12,4,84,56,35,30.07,29.60,6,2,17,0.00
2013-1-22,19,14,1,13,6,-4,88,73,52,30.06,29.67,1,0,8,0.00
2013-1-23,19,4,-7,3,-4,-11,88,70,42,29.93,29.83,5,1,16,0.00
2013-1-24,20,5,-4,3,-3,-7,85,71,44,29.87,29.74,5,1,14,0.00
2013-1-25,18,7,-5,7,0,-10,85,74,61,30.09,29.85,6,1,15,0.00
2013-1-26,34,12,1,12,5,-3,88,74,36,30.09,29.85,2,0,8,0.00
2013-1-27,29,10,-1,10,3,-5,85,72,44,30.23,29.93,4,1,12,0.00
2013-1-28,35,16,2,9,3,-6,86,60,22,30.27,30.16,4,1,13,0.00
2013-1-29,36,20,7,18,10,3,86,69,41,30.37,30.12,3,0,11,0.00
2013-1-30,37,23,16,34,20,13,97,88,78,30.38,30.16,2,0,9,0.00
2013-2-14,44,32,24,34,26,23,100,81,48,30.05,29.77,2,0,5,0.00
2013-2-15,51,34,26,32,26,22,97,76,42,30.19,30.04,3,0,7,0.00
2013-2-16,48,36,28,37,34,28,100,90,64,30.17,29.84,4,0,7,0.00
2013-2-17,47,39,33,46,38,32,100,99,99,29.83,28.34,3,1,7,0.04
2013-2-18,33,27,24,33,22,18,100,84,70,29.58,28.61,10,2,18,0.00
2013-2-19,46,30,24,24,20,16,89,68,40,30.13,29.59,8,2,14,0.00
2013-2-20,38,33,24,38,32,22,100,97,89,30.08,29.47,4,0,12,0.02
2013-2-21,36,33,31,34,32,30,100,95,85,29.81,29.54,2,0,8,0.02
2013-2-22,34,31,26,32,26,18,96,81,70,30.38,29.81,3,0,15,0.00
2013-2-23,47,28,18,23,17,14,87,65,31,30.40,30.26,2,0,8,0.00
2013-2-24,36,26,14,26,20,12,92,80,63,30.27,29.85,2,0,13,0.00
2013-2-25,50,31,22,21,18,13,83,64,27,30.26,29.84,2,1,11,0.00
2013-2-26,46,28,16,23,17,13,92,68,35,30.46,30.25,3,0,9,0.00
2013-2-27,57,28,13,23,16,7,92,69,18,30.44,30.16,2,0,6,0.00
2013-2-28,40,34,26,30,23,17,85,65,51,30.16,29.71,2,1,8,0.00
2013-3-1,40,35,32,32,29,21,91,80,59,29.71,29.45,3,1,13,0.00
2013-3-2,44,36,31,36,33,29,100,91,70,29.54,29.39,3,1,10,0.02
2013-3-3,41,36,33,38,35,33,100,96,84,29.58,29.51,1,0,5,0.00
2013-3-4,41,36,34,40,36,33,100,99,95,29.71,29.48,1,0,4,0.00
2013-3-5,42,36,33,39,35,32,100,96,84,30.15,29.71,2,0,10,0.04
2013-3-6,40,35,33,32,28,22,94,75,57,30.43,30.14,3,1,11,0.00
2013-3-7,36,34,32,30,27,25,80,75,72,30.41,30.22,3,1,13,0.00
2013-3-8,48,36,30,29,26,22,81,68,42,30.23,30.13,3,2,14,0.00
2013-3-9,48,37,30,28,26,24,79,67,45,30.41,30.22,2,1,11,0.00
2013-3-10,60,38,26,30,26,21,88,65,25,30.48,30.41,1,0,8,0.00
2013-3-11,46,35,26,36,32,23,100,88,63,30.45,30.38,2,1,8,0.00
2013-3-12,44,38,33,42,37,33,100,97,87,30.45,30.30,2,0,8,0.00
2013-3-13,54,48,42,49,46,41,100,94,79,30.31,29.70,3,2,13,0.00
2013-3-14,54,43,27,49,34,10,100,78,22,29.71,29.54,4,1,13,0.05
2013-3-15,39,32,27,36,31,25,100,96,91,29.69,29.53,1,0,5,0.01
2013-3-16,41,30,21,29,22,14,100,76,39,29.86,29.59,3,0,11,0.05
2013-3-17,40,27,16,25,15,1,92,65,34,30.09,29.82,5,2,17,0.01
2013-3-18,32,19,11,8,0,-5,70,44,26,30.35,30.09,5,3,21,0.00
2013-3-19,44,24,11,19,12,4,80,62,25,30.41,29.99,2,0,8,0.00
2013-3-20,42,32,24,37,27,18,100,84,61,30.00,29.38,5,2,18,0.12
2013-3-21,49,36,28,33,29,25,100,78,47,29.99,29.50,3,1,10,0.00
2013-3-22,50,34,28,32,29,24,100,82,42,29.56,29.32,5,2,16,0.08
2013-3-23,43,32,21,28,24,19,94,76,44,29.55,29.47,3,1,11,0.00
2013-3-24,48,34,24,34,27,21,97,80,43,29.78,29.50,3,1,11,0.01
2013-3-25,51,33,19,33,25,18,97,77,41,29.77,29.64,3,1,10,0.00
2013-3-26,48,36,28,34,30,25,90,79,57,29.65,29.35,4,2,16,0.01
2013-3-27,45,38,34,41,35,32,97,89,74,29.77,29.51,2,1,11,0.02
2013-3-28,56,39,29,34,29,23,94,71,34,29.94,29.76,2,1,12,0.00
2013-3-29,54,37,25,30,20,4,96,61,18,30.02,29.90,4,1,17,0.00
2013-3-30,59,37,22,28,15,-8,93,53,10,30.11,29.98,3,1,10,0.00
2013-3-31,55,36,19,33,20,-9,92,61,12,30.22,30.11,2,0,9,0.00
2013-4-1,49,40,36,43,39,34,100,95,65,30.20,29.66,3,1,11,0.01
2013-4-2,40,38,37,40,38,37,99,99,99,29.68,29.63,2,0,9,0.00
2013-4-3,38,32,27,22,19,14,76,60,39,29.87,29.74,5,2,14,0.00
2013-4-4,52,37,27,22,16,-1,76,49,12,30.15,29.87,6,2,11,0.00
2013-4-5,47,38,26,41,34,20,100,87,73,30.15,29.61,4,1,11,0.00
2013-4-6,46,38,30,40,28,11,99,71,29,30.28,29.55,6,2,13,0.02
2013-4-7,54,35,23,28,16,5,73,48,20,30.45,30.25,4,1,8,0.00
2013-4-8,58,45,36,47,40,28,100,83,63,30.24,30.03,2,0,8,0.00
2013-4-9,47,37,31,37,33,30,100,87,66,30.25,30.04,2,0,6,0.00
2013-4-10,50,40,33,42,37,33,100,89,68,30.05,29.93,3,0,8,0.00
2013-4-11,56,42,30,42,26,-6,100,65,12,30.12,29.88,4,1,14,0.00
2013-4-12,62,37,25,31,22,6,90,60,16,30.28,30.11,3,0,11,0.00
2013-4-13,43,37,33,42,36,31,100,97,91,30.22,29.71,2,0,10,0.02
2013-4-14,43,38,35,41,37,35,100,95,88,30.20,29.93,1,0,4,0.00
2013-4-15,66,43,28,39,30,10,100,70,17,30.52,30.19,2,0,9,0.00
2013-4-16,55,38,24,40,32,22,96,83,49,30.56,30.24,4,1,15,0.00
2013-4-17,64,52,37,49,36,27,100,61,32,30.30,29.99,5,2,15,0.08
2013-4-18,59,41,30,35,27,17,93,63,28,30.55,30.30,3,1,9,0.00
2013-4-19,53,45,39,50,42,32,100,89,73,30.46,30.06,3,1,10,0.00
2013-4-20,52,48,44,52,48,44,99,99,99,30.11,29.91,3,1,12,0.04
2013-4-21,63,44,30,44,33,23,100,71,29,30.73,30.10,3,1,10,0.00
2013-4-22,65,39,22,29,21,10,96,60,16,30.92,30.73,2,0,8,0.00
2013-4-23,58,40,30,42,34,25,100,79,50,30.87,30.50,2,1,8,0.00
2013-4-24,55,49,42,54,48,42,100,99,97,30.50,30.12,3,2,12,0.02
2013-4-25,62,48,42,54,46,42,100,95,70,30.30,30.14,3,1,10,0.01
2013-4-26,50,43,38,49,43,38,100,99,94,30.43,30.29,2,1,13,0.08
2013-4-27,54,43,35,42,38,33,100,84,60,30.41,30.33,3,1,14,0.01
2013-4-28,73,49,33,38,30,13,97,61,15,30.37,30.29,3,1,14,0.00
2013-4-29,65,45,29,45,36,25,93,71,46,30.41,30.30,2,0,8,0.00
2013-4-30,66,50,39,51,45,37,100,86,58,30.50,30.39,1,0,4,0.00
2013-5-1,80,58,45,50,43,31,100,67,22,30.54,30.47,2,0,7,0.00
2013-5-2,62,48,40,46,39,34,93,74,40,30.55,30.45,2,1,13,0.00
2013-5-3,71,52,41,42,38,32,89,63,31,30.57,30.48,2,1,8,0.00
2013-5-4,72,52,35,40,34,31,84,56,27,30.49,30.41,2,1,9,0.00
2013-5-5,70,46,30,44,36,29,100,74,35,30.44,30.35,2,0,7,0.00
2013-5-6,67,48,37,45,41,37,100,79,42,30.42,30.31,3,1,9,0.00
2013-5-7,74,56,40,56,50,39,100,83,52,30.32,30.20,3,1,13,0.00
2013-5-8,78,59,45,61,52,44,100,82,44,30.41,30.27,2,0,8,0.00
2013-7-16,96,76,60,71,60,48,100,64,25,30.28,30.05,2,1,7,0.00
2013-7-17,80,65,50,62,52,42,95,68,34,30.32,30.13,3,1,7,0.00
2013-7-18,93,74,60,71,62,43,100,73,18,30.12,29.95,3,0,8,0.09
2013-7-19,70,65,59,69,64,57,100,94,83,30.09,29.78,2,0,6,0.00
2013-7-20,94,74,66,75,68,64,100,85,48,29.78,29.70,2,0,4,0.00
2013-7-21,88,72,56,66,57,43,100,64,23,30.10,29.73,3,1,7,0.00
2013-7-22,85,66,49,59,53,48,100,68,30,30.16,30.10,2,0,5,0.00
2013-7-23,77,66,53,69,60,51,100,82,56,30.14,29.72,2,0,11,0.01
2013-7-24,75,69,66,70,68,66,100,96,83,29.97,29.68,2,0,9,0.02
2013-7-25,87,69,65,73,67,64,100,95,61,30.29,29.96,1,0,5,0.02
2013-7-26,83,74,67,74,70,66,100,88,68,30.28,30.13,1,0,8,0.01
2013-7-27,76,70,64,70,65,62,95,84,67,30.14,30.03,2,1,14,0.00
2013-7-28,89,71,59,66,62,59,100,77,43,30.20,30.09,2,0,7,0.00
2013-7-29,73,68,64,70,67,62,100,96,84,30.21,30.14,0,0,4,0.01
2013-7-30,77,67,64,72,66,64,100,98,86,30.17,30.04,0,0,4,0.01
2013-7-31,89,73,59,68,64,57,99,78,39,30.14,30.04,2,0,9,0.00
2013-8-1,84,67,52,64,59,52,100,78,43,30.16,30.10,1,0,7,0.00
2013-8-2,77,70,64,69,64,62,100,85,64,30.10,29.88,0,0,4,0.00
2013-8-3,82,70,63,67,65,62,100,86,60,29.93,29.81,1,0,8,0.00
2013-8-4,82,68,56,64,61,56,100,79,53,29.86,29.80,1,0,6,0.00
2013-8-5,82,66,58,66,61,50,100,87,38,29.92,29.79,2,0,4,0.44
2013-8-14,78,69,59,73,67,59,100,94,81,29.85,29.69,1,0,3,0.01
2013-8-15,84,67,53,60,52,38,100,67,20,30.14,29.74,4,1,8,0.00
2013-8-16,84,63,48,62,55,47,100,78,41,30.30,30.14,2,0,5,0.00
2013-8-17,87,64,51,62,56,51,100,79,36,30.32,30.25,2,0,6,0.00
2013-8-18,87,64,48,60,55,48,100,76,32,30.32,30.13,2,0,7,0.00
2013-8-19,86,66,51,66,59,50,100,80,45,30.13,29.84,2,0,6,0.00
2013-8-20,93,70,55,66,60,48,100,77,25,30.18,29.91,2,0,5,0.00
2013-8-21,88,72,60,69,64,59,100,80,47,30.22,30.10,2,0,9,0.00
2013-8-22,81,64,56,66,60,56,100,89,57,30.12,29.93,2,0,7,0.00
2013-8-23,82,64,60,67,61,57,100,92,54,30.06,29.84,1,0,7,0.02
2013-8-24,60,60,60,57,57,57,91,91,91,30.06,30.06,0,0,2,0.02
2013-8-25,60,60,60,57,57,57,91,91,91,30.06,30.06,0,0,2,0.02
2013-8-26,60,60,60,57,57,57,91,91,91,30.06,30.06,0,0,2,0.02
2013-8-29,67,64,61,63,61,60,100,92,82,30.09,29.83,3,1,8,0.06
2013-8-30,69,62,52,61,58,51,100,86,69,29.82,29.73,4,2,10,0.01
2013-8-31,88,65,50,66,59,50,100,85,44,30.01,29.82,2,0,4,0.00
2013-9-1,68,66,63,68,66,63,99,99,99,30.03,29.93,2,0,4,0.19
2013-9-2,71,66,64,68,65,64,100,97,86,30.15,30.03,2,0,4,0.00
2013-9-3,71,68,64,70,68,64,99,99,99,30.08,29.86,3,1,8,0.14
2013-9-4,82,68,60,72,66,59,100,94,68,29.90,29.79,2,0,4,0.01
2013-9-5,72,57,48,66,55,48,100,93,73,30.12,29.89,0,0,3,0.01
2013-9-6,74,55,43,50,44,36,100,73,31,30.21,30.11,2,0,7,0.00
2013-9-7,77,58,40,59,50,38,100,78,49,30.14,29.92,2,0,10,0.00
2013-9-8,72,64,61,62,59,57,90,84,72,29.92,29.70,2,0,9,0.00
2013-9-10,76,59,44,59,52,41,97,80,50,30.31,30.24,3,0,7,0.00
2013-9-11,68,63,60,66,62,58,100,96,88,30.28,30.06,2,0,5,0.00
2013-9-12,90,68,61,70,64,61,100,90,50,30.05,29.94,3,0,7,0.00
2013-9-13,70,67,62,70,67,62,99,99,99,29.94,29.69,3,0,8,0.14
2013-9-14,69,65,62,69,65,61,99,99,97,29.98,29.76,1,0,4,0.02
2013-9-15,80,63,50,63,57,49,99,83,44,30.11,29.98,3,0,9,0.00
2013-9-16,76,59,49,61,56,48,100,92,59,30.10,30.00,2,0,5,0.00
2013-9-17,70,52,40,56,42,34,99,73,32,30.33,30.08,2,1,11,0.00
2013-9-18,82,53,37,52,44,36,100,78,35,30.32,30.09,2,0,7,0.00
2013-9-19,86,56,39,56,47,39,100,78,32,30.11,30.02,1,0,5,0.00
2013-9-20,80,58,44,60,53,43,100,84,49,30.26,30.05,1,0,5,0.00
2013-9-21,76,63,53,65,59,50,100,88,68,30.26,30.09,2,0,8,0.00
2013-9-22,84,69,57,68,65,57,100,89,57,30.09,29.78,3,1,11,0.00
2013-9-23,75,63,52,67,56,44,100,81,45,29.80,29.67,3,1,11,0.09
2013-9-24,60,53,50,50,46,42,97,78,62,29.83,29.79,2,0,7,0.00
2013-9-25,66,53,48,53,49,47,100,88,56,29.81,29.76,2,0,7,0.04
2013-9-26,65,57,53,57,54,52,100,88,70,29.99,29.80,3,1,12,0.09
2013-9-27,68,57,50,54,50,45,93,80,53,30.27,29.98,2,1,11,0.00
2013-9-28,86,55,37,53,43,19,100,73,14,30.37,30.27,1,0,4,0.00
2013-9-29,85,54,37,55,44,36,100,76,27,30.34,30.22,2,0,8,0.00
2013-9-30,77,55,40,62,49,39,100,84,45,30.24,30.07,0,0,4,0.00
2013-10-1,62,59,56,60,57,54,100,94,78,30.07,29.81,1,0,6,0.18
2013-10-2,83,61,47,63,57,47,100,88,47,29.85,29.73,1,0,5,0.06
2013-10-3,74,60,50,55,47,38,100,68,34,30.01,29.76,3,1,11,0.00
2013-10-4,72,56,42,48,40,19,94,64,19,30.10,29.95,4,1,15,0.00
2013-10-5,72,50,36,49,41,34,100,76,31,30.17,30.09,1,0,5,0.00
2013-10-6,70,50,38,46,39,33,93,70,31,30.42,30.13,2,0,8,0.00
2013-10-7,62,53,36,59,48,34,100,86,69,30.43,30.24,2,0,8,0.00
2013-10-8,66,58,47,66,53,41,100,85,58,30.33,30.02,3,1,10,0.04
2013-10-9,73,50,37,45,39,30,100,74,24,30.50,30.34,2,0,6,0.00
2013-10-10,79,50,34,50,41,34,100,79,31,30.44,30.27,2,0,7,0.00
2013-10-11,86,56,40,53,46,38,100,75,24,30.29,30.14,1,0,11,0.00
2013-10-12,69,50,40,44,38,26,92,68,24,30.47,30.29,1,0,8,0.00
2013-10-13,59,45,33,37,33,30,89,68,37,30.47,30.44,1,0,6,0.00
2013-10-14,76,45,30,52,39,29,100,83,36,30.46,30.32,2,0,7,0.00
2013-10-15,71,52,40,54,47,38,100,84,50,30.38,30.27,1,0,6,0.00
2013-10-16,71,50,35,57,47,34,100,90,53,30.39,30.09,1,0,5,0.01
2013-10-17,72,63,56,70,62,56,100,99,88,30.10,29.80,2,0,8,0.12
2013-10-18,60,56,53,60,56,53,100,98,92,29.84,29.65,2,0,10,0.01
2013-10-19,69,54,45,54,44,32,100,76,31,29.98,29.72,4,1,11,0.00
2013-10-20,62,53,43,59,51,42,100,95,69,29.98,29.75,1,0,5,0.02
2013-10-21,64,47,36,47,38,34,100,73,37,30.13,29.85,4,1,13,0.04
2013-10-22,68,48,32,53,42,31,100,83,43,30.16,29.84,2,0,8,0.00
2013-10-23,68,52,42,57,49,39,100,89,52,29.85,29.57,2,0,7,0.31
2013-10-24,59,46,41,50,36,26,100,73,34,29.79,29.51,4,1,11,0.19
2013-10-25,60,44,35,38,34,30,91,70,39,30.02,29.76,3,1,11,0.00
2013-10-26,56,41,31,41,33,24,100,75,35,30.15,30.02,3,1,12,0.00
2013-10-27,54,48,42,54,47,41,100,97,86,30.11,29.79,3,0,9,0.71
2013-10-28,58,44,37,42,36,28,100,77,37,30.16,29.94,4,1,14,0.01
2013-10-31,50,38,25,49,31,24,100,78,41,30.35,30.12,2,0,6,0.00
2013-11-1,62,59,50,61,58,49,100,99,97,30.11,29.62,5,2,16,0.33
2013-11-2,61,55,52,61,55,52,100,99,94,29.80,29.61,3,0,11,0.01
2013-11-3,52,42,32,52,39,30,100,90,78,30.26,29.73,2,0,6,0.02
2013-11-4,50,35,29,34,30,27,100,83,50,30.73,30.27,3,0,8,0.00
2013-11-5,61,36,26,35,28,21,100,79,23,30.81,30.64,1,0,3,0.02
2013-11-6,57,42,29,50,38,28,100,88,54,30.65,30.23,2,0,4,0.00
2013-11-7,58,55,50,58,55,50,100,99,93,30.24,29.62,3,1,12,0.50
2013-11-8,55,42,35,55,35,25,100,77,52,29.82,29.57,3,1,11,0.04
2013-11-9,40,35,27,32,27,22,91,75,55,30.17,29.81,4,1,14,0.00
2013-11-10,49,37,24,49,33,22,100,87,63,30.18,29.67,1,0,6,0.00
2013-11-11,50,43,39,49,39,33,100,87,75,30.06,29.62,3,1,13,0.00
2013-11-12,48,39,30,47,37,27,100,94,81,30.06,29.88,2,0,11,0.22
2013-11-13,45,31,23,28,23,18,91,73,44,30.13,29.98,2,0,8,0.01
2013-11-14,47,32,20,34,26,16,93,80,58,30.14,30.02,2,0,9,0.01
2013-11-15,60,44,33,46,38,31,97,82,54,30.30,30.14,2,0,8,0.00
2013-11-16,48,36,30,47,36,30,100,99,96,30.42,30.30,1,0,2,0.00
2013-11-17,47,43,38,45,42,38,100,97,92,30.48,30.34,0,0,4,0.00
2013-11-18,57,51,43,57,50,42,100,97,90,30.34,29.70,4,1,13,0.13
2013-11-19,65,48,34,57,42,24,100,82,58,29.93,29.63,4,1,10,0.01
2013-11-20,39,32,28,28,15,6,82,51,36,30.40,29.93,5,3,18,0.00
2013-11-21,53,36,27,19,12,-4,63,43,14,30.42,30.29,4,2,17,0.00
2013-11-22,60,40,29,30,21,2,80,52,15,30.30,29.84,2,0,11,0.00
2013-11-23,49,37,30,39,28,16,84,71,52,29.85,29.52,4,1,16,0.00
2013-11-24,41,28,22,22,15,5,76,59,25,29.68,29.48,4,2,14,0.00
2013-11-25,36,25,20,18,14,10,81,65,38,30.35,29.67,5,2,16,0.00
2013-11-26,44,32,16,43,29,12,100,90,75,30.47,30.35,2,0,10,0.11
2013-11-27,57,47,35,57,47,35,100,99,96,30.43,29.55,4,1,13,0.04
2013-11-28,59,46,31,58,41,19,100,84,58,30.26,29.49,6,2,22,0.07
2013-11-29,39,27,20,20,15,10,78,62,36,30.62,30.26,4,1,11,0.00
2013-11-30,42,22,14,14,9,-1,88,62,20,30.79,30.62,3,1,8,0.00
2013-12-1,39,30,16,38,26,13,100,88,68,30.70,30.30,1,0,4,0.00
2013-12-2,47,43,38,46,42,38,100,98,95,30.29,30.03,0,0,4,0.00
2013-12-3,46,43,37,45,42,37,100,99,99,30.04,29.28,3,0,12,0.66
2013-12-4,44,38,34,43,35,29,100,90,76,30.15,29.21,7,3,25,1.52
2013-12-5,57,36,28,38,28,22,90,74,30,30.40,30.15,4,0,10,0.00
2013-12-6,52,46,41,52,45,38,100,96,85,30.25,29.86,1,0,8,0.01
2013-12-7,42,35,28,38,30,16,100,82,62,30.24,30.00,3,1,8,0.07
2013-12-8,33,25,19,17,13,9,80,62,43,30.57,30.24,5,2,13,0.00
2013-12-9,40,24,16,34,15,6,100,69,32,30.60,29.94,1,0,7,0.00
2013-12-10,39,35,28,37,34,27,100,96,88,29.95,29.67,2,0,8,0.34
2013-12-11,37,24,16,27,16,9,95,73,37,30.11,29.67,3,0,9,0.01
2013-12-12,27,16,4,19,8,0,92,72,47,30.15,30.05,3,1,14,0.00
2013-12-13,35,11,-1,26,6,-5,89,79,59,30.22,29.83,4,0,11,0.00
2013-12-14,19,7,1,4,-2,-6,82,66,37,30.66,30.22,3,1,15,0.00
2013-12-15,36,23,5,36,21,-1,100,90,70,30.65,29.18,4,1,14,0.01
2013-12-16,35,26,14,31,19,7,100,75,45,30.04,29.38,0,0,0,0.00
2013-12-17,38,14,4,14,6,-1,87,71,30,30.41,30.04,0,0,0,0.00
2013-12-18,40,28,10,40,26,6,100,93,82,30.34,29.43,3,0,11,0.04
2013-12-19,38,27,19,26,21,15,89,78,53,30.07,29.77,4,0,15,0.00
2013-12-20,42,31,24,36,27,21,96,85,53,30.34,30.06,1,0,5,0.01
2013-12-21,45,39,35,44,38,35,100,98,96,30.08,29.95,0,0,4,0.02
2013-12-22,39,34,31,38,33,29,96,95,93,30.22,30.00,1,0,6,0.06
2013-12-23,36,34,31,35,33,29,100,96,93,30.29,29.99,0,0,4,0.01
2013-12-24,35,33,30,35,33,29,100,98,95,30.08,29.91,1,0,8,0.01
2013-12-25,34,22,5,29,19,2,96,85,60,30.62,29.91,2,0,8,0.00
2013-12-26,34,16,-1,34,14,-4,100,88,82,30.67,30.04,0,0,2,0.00
2013-12-27,35,29,17,34,27,14,100,93,86,30.18,29.94,0,0,0,0.01
2013-12-28,42,26,8,34,23,5,100,88,64,30.22,29.99,1,0,8,0.02
2013-12-29,38,32,28,37,31,24,100,95,86,30.20,29.84,1,0,4,0.06
2013-12-30,47,36,22,46,32,14,100,87,65,30.03,29.26,4,2,20,0.07
2013-12-31,22,12,6,14,3,-2,80,68,45,30.18,30.03,3,1,10,0.00
2014-1-1,27,10,0,7,2,-5,83,71,34,30.38,30.07,7,1,19,0.00
2014-1-2,10,0,-2,6,-6,-9,82,73,71,30.54,30.16,2,0,6,0.00